Time,TemperatureF,DewpointF,PressureIn,WindDirection,WindDirectionDegrees,WindSpeedMPH,WindSpeedGustMPH,Humidity,HourlyPrecipIn,Conditions,Clouds,dailyrainin,SolarRadiationWatts/m^2,SoftwareType,DateUTC
2015-01-27 00:02:00,44.0,28.0,-100.00,WNW,285,14.0,19.0,53,0.00,,,0.00,0.000000,,2015-01-27 07:02:00,
2015-01-27 00:12:00,44.0,28.0,-100.00,WNW,285,14.0,19.0,53,0.00,,,0.00,0.000000,,2015-01-27 07:12:00,
2015-01-27 00:21:00,44.0,27.0,-100.00,WNW,290,15.0,19.0,50,0.00,,,0.00,0.000000,,2015-01-27 07:21:00,
2015-01-27 00:53:00,44.0,27.0,-100.00,WNW,290,15.0,19.0,50,0.00,,,0.00,0.000000,,2015-01-27 07:53:00,
2015-01-27 01:02:00,44.0,27.0,-100.00,WNW,290,15.0,19.0,50,0.00,,,0.00,0.000000,,2015-01-27 08:02:00,
2015-01-27 01:11:00,44.0,27.0,-100.00,WNW,290,15.0,19.0,50,0.00,,,0.00,0.000000,,2015-01-27 08:11:00,
2015-01-27 01:21:00,47.0,25.0,-100.00,West,275,14.0,22.0,42,0.00,,,0.00,0.000000,,2015-01-27 08:21:00,
2015-01-27 01:52:00,47.0,25.0,-100.00,West,275,14.0,22.0,42,0.00,,,0.00,0.000000,,2015-01-27 08:52:00,
2015-01-27 02:02:00,47.0,25.0,-100.00,West,275,14.0,22.0,42,0.00,,,0.00,0.000000,,2015-01-27 09:02:00,
2015-01-27 02:12:00,47.0,25.0,-100.00,West,275,14.0,22.0,42,0.00,,,0.00,0.000000,,2015-01-27 09:12:00,
2015-01-27 02:21:00,52.0,26.0,-100.00,WSW,256,14.0,20.0,36,0.00,,,0.00,0.000000,,2015-01-27 09:21:00,
2015-01-27 02:54:00,52.0,26.0,-100.00,WSW,256,14.0,20.0,36,0.00,,,0.00,0.000000,,2015-01-27 09:54:00,
2015-01-27 03:03:00,52.0,26.0,-100.00,WSW,256,14.0,20.0,36,0.00,,,0.00,0.000000,,2015-01-27 10:03:00,
2015-01-27 03:13:00,52.0,26.0,-100.00,WSW,256,14.0,20.0,36,0.00,,,0.00,0.000000,,2015-01-27 10:13:00,
2015-01-27 03:21:00,48.0,22.0,-100.00,West,267,16.0,21.0,36,0.00,,,0.00,0.000000,,2015-01-27 10:21:00,
2015-01-27 03:54:00,48.0,22.0,-100.00,West,267,16.0,21.0,36,0.00,,,0.00,0.000000,,2015-01-27 10:54:00,
2015-01-27 04:03:00,48.0,22.0,-100.00,West,267,16.0,21.0,36,0.00,,,0.00,0.000000,,2015-01-27 11:03:00,
2015-01-27 04:13:00,48.0,22.0,-100.00,West,267,16.0,21.0,36,0.00,,,0.00,0.000000,,2015-01-27 11:13:00,
2015-01-27 04:21:00,44.0,28.0,-100.00,WNW,290,14.0,18.0,52,0.00,,,0.00,0.000000,,2015-01-27 11:21:00,
2015-01-27 04:53:00,44.0,28.0,-100.00,WNW,290,14.0,18.0,52,0.00,,,0.00,0.000000,,2015-01-27 11:53:00,
2015-01-27 05:03:00,44.0,28.0,-100.00,WNW,290,14.0,18.0,52,0.00,,,0.00,0.000000,,2015-01-27 12:03:00,
2015-01-27 05:12:00,44.0,28.0,-100.00,WNW,290,14.0,18.0,52,0.00,,,0.00,0.000000,,2015-01-27 12:12:00,
2015-01-27 05:21:00,47.0,25.0,-100.00,West,278,15.0,21.0,42,0.00,,,0.00,0.000000,,2015-01-27 12:21:00,
2015-01-27 05:53:00,47.0,25.0,-100.00,West,278,15.0,21.0,42,0.00,,,0.00,0.000000,,2015-01-27 12:53:00,
2015-01-27 06:02:00,47.0,25.0,-100.00,West,278,15.0,21.0,42,0.00,,,0.00,0.000000,,2015-01-27 13:02:00,
2015-01-27 06:12:00,47.0,25.0,-100.00,West,278,15.0,21.0,42,0.00,,,0.00,0.000000,,2015-01-27 13:12:00,
2015-01-27 06:21:00,42.0,24.0,-100.00,WNW,291,15.0,21.0,49,0.00,,,0.00,0.000000,,2015-01-27 13:21:00,
2015-01-27 06:52:00,42.0,24.0,-100.00,WNW,291,15.0,21.0,49,0.00,,,0.00,0.000000,,2015-01-27 13:52:00,
2015-01-27 07:02:00,42.0,24.0,-100.00,WNW,291,15.0,21.0,49,0.00,,,0.00,0.000000,,2015-01-27 14:02:00,
2015-01-27 07:12:00,42.0,24.0,-100.00,WNW,291,15.0,21.0,49,0.00,,,0.00,0.000000,,2015-01-27 14:12:00,
2015-01-27 07:21:00,42.0,28.0,-100.00,West,274,10.0,19.0,58,0.00,,,0.00,0.000000,,2015-01-27 14:21:00,
2015-01-27 07:53:00,42.0,28.0,-100.00,West,274,10.0,19.0,58,0.00,,,0.00,0.000000,,2015-01-27 14:53:00,
2015-01-27 08:02:00,42.0,28.0,-100.00,West,274,10.0,19.0,58,0.00,,,0.00,0.000000,,2015-01-27 15:02:00,
2015-01-27 08:12:00,42.0,28.0,-100.00,West,274,10.0,19.0,58,0.00,,,0.00,0.000000,,2015-01-27 15:12:00,
2015-01-27 08:21:00,42.0,27.0,-100.00,NW,318,8.0,17.0,56,0.00,,,-99.99,13.000000,,2015-01-27 15:21:00,
2015-01-27 08:55:00,42.0,27.0,-100.00,NW,318,8.0,17.0,56,0.00,,,-99.99,13.000000,,2015-01-27 15:55:00,
2015-01-27 09:04:00,42.0,27.0,-100.00,NW,318,8.0,17.0,56,0.00,,,-99.99,13.000000,,2015-01-27 16:04:00,
2015-01-27 09:13:00,42.0,27.0,-100.00,NW,318,8.0,17.0,56,0.00,,,-99.99,13.000000,,2015-01-27 16:13:00,
2015-01-27 09:21:00,45.0,25.0,-100.00,WNW,293,7.0,11.0,46,0.00,,,0.00,42.000000,,2015-01-27 16:21:00,
2015-01-27 09:54:00,45.0,25.0,-100.00,WNW,293,7.0,11.0,46,0.00,,,0.00,42.000000,,2015-01-27 16:54:00,
2015-01-27 10:03:00,45.0,25.0,-100.00,WNW,293,7.0,11.0,46,0.00,,,0.00,42.000000,,2015-01-27 17:03:00,
2015-01-27 10:12:00,45.0,25.0,-100.00,WNW,293,7.0,11.0,46,0.00,,,0.00,42.000000,,2015-01-27 17:12:00,
2015-01-27 10:21:00,46.0,26.0,-100.00,NW,325,7.0,10.0,46,0.00,,,0.00,52.000000,,2015-01-27 17:21:00,
2015-01-27 10:53:00,46.0,26.0,-100.00,NW,325,7.0,10.0,46,0.00,,,0.00,52.000000,,2015-01-27 17:53:00,
2015-01-27 11:02:00,46.0,26.0,-100.00,NW,325,7.0,10.0,46,0.00,,,0.00,52.000000,,2015-01-27 18:02:00,
2015-01-27 11:13:00,46.0,26.0,-100.00,NW,325,7.0,10.0,46,0.00,,,0.00,52.000000,,2015-01-27 18:13:00,
2015-01-27 11:21:00,49.0,32.0,-100.00,NNW,329,8.0,11.0,52,0.00,,,0.00,72.000000,,2015-01-27 18:21:00,
2015-01-27 11:54:00,49.0,32.0,-100.00,NNW,329,8.0,11.0,52,0.00,,,0.00,72.000000,,2015-01-27 18:54:00,
2015-01-27 12:03:00,49.0,32.0,-100.00,NNW,329,8.0,11.0,52,0.00,,,0.00,72.000000,,2015-01-27 19:03:00,
2015-01-27 12:13:00,49.0,32.0,-100.00,NNW,329,8.0,11.0,52,0.00,,,0.00,72.000000,,2015-01-27 19:13:00,
2015-01-27 12:21:00,57.0,32.0,-100.00,West,274,7.0,14.0,39,0.00,,,0.00,168.000000,,2015-01-27 19:21:00,
2015-01-27 12:52:00,57.0,32.0,-100.00,West,274,7.0,14.0,39,0.00,,,0.00,168.000000,,2015-01-27 19:52:00,
2015-01-27 13:03:00,57.0,32.0,-100.00,West,274,7.0,14.0,39,0.00,,,0.00,168.000000,,2015-01-27 20:03:00,
2015-01-27 13:12:00,57.0,32.0,-100.00,West,274,7.0,14.0,39,0.00,,,0.00,168.000000,,2015-01-27 20:12:00,
2015-01-27 13:21:00,62.0,33.0,-100.00,NW,305,9.0,14.0,34,0.00,,,0.00,171.000000,,2015-01-27 20:21:00,
2015-01-27 13:52:00,62.0,33.0,-100.00,NW,305,9.0,14.0,34,0.00,,,0.00,171.000000,,2015-01-27 20:52:00,
2015-01-27 14:02:00,62.0,33.0,-100.00,NW,305,9.0,14.0,34,0.00,,,0.00,171.000000,,2015-01-27 21:02:00,
2015-01-27 14:11:00,62.0,33.0,-100.00,NW,305,9.0,14.0,34,0.00,,,0.00,171.000000,,2015-01-27 21:11:00,
2015-01-27 14:21:00,64.0,31.0,-100.00,WSW,240,6.0,16.0,29,0.00,,,0.00,146.000000,,2015-01-27 21:21:00,
2015-01-27 14:53:00,64.0,31.0,-100.00,WSW,240,6.0,16.0,29,0.00,,,0.00,146.000000,,2015-01-27 21:53:00,
2015-01-27 15:04:00,64.0,31.0,-100.00,WSW,240,6.0,16.0,29,0.00,,,0.00,146.000000,,2015-01-27 22:04:00,
2015-01-27 15:13:00,64.0,31.0,-100.00,WSW,240,6.0,16.0,29,0.00,,,0.00,146.000000,,2015-01-27 22:13:00,
2015-01-27 15:21:00,58.0,30.0,-100.00,West,265,10.0,14.0,34,0.00,,,0.00,59.000000,,2015-01-27 22:21:00,
2015-01-27 15:54:00,58.0,30.0,-100.00,West,265,10.0,14.0,34,0.00,,,0.00,59.000000,,2015-01-27 22:54:00,
2015-01-27 16:03:00,58.0,30.0,-100.00,West,265,10.0,14.0,34,0.00,,,0.00,59.000000,,2015-01-27 23:03:00,
2015-01-27 16:13:00,58.0,30.0,-100.00,West,265,10.0,14.0,34,0.00,,,0.00,59.000000,,2015-01-27 23:13:00,
2015-01-27 16:21:00,54.0,28.0,-100.00,WNW,290,7.0,15.0,36,0.00,,,0.00,20.000000,,2015-01-27 23:21:00,
2015-01-27 16:53:00,54.0,28.0,-100.00,WNW,290,7.0,15.0,36,0.00,,,0.00,20.000000,,2015-01-27 23:53:00,
2015-01-27 17:02:00,54.0,28.0,-100.00,WNW,290,7.0,15.0,36,0.00,,,0.00,20.000000,,2015-01-28 00:02:00,
2015-01-27 17:12:00,54.0,28.0,-100.00,WNW,290,7.0,15.0,36,0.00,,,0.00,20.000000,,2015-01-28 00:12:00,
2015-01-27 17:21:00,53.0,29.0,-100.00,West,279,9.0,11.0,40,0.00,,,0.00,7.000000,,2015-01-28 00:21:00,
2015-01-27 17:52:00,53.0,29.0,-100.00,West,279,9.0,11.0,40,0.00,,,0.00,7.000000,,2015-01-28 00:52:00,
2015-01-27 18:02:00,53.0,29.0,-100.00,West,279,9.0,11.0,40,0.00,,,0.00,7.000000,,2015-01-28 01:02:00,
2015-01-27 18:11:00,53.0,29.0,-100.00,West,279,9.0,11.0,40,0.00,,,0.00,7.000000,,2015-01-28 01:11:00,
2015-01-27 18:21:00,50.0,28.0,-100.00,West,272,11.0,15.0,43,0.00,,,0.00,0.000000,,2015-01-28 01:21:00,
2015-01-27 18:52:00,50.0,28.0,-100.00,West,272,11.0,15.0,43,0.00,,,0.00,0.000000,,2015-01-28 01:52:00,
2015-01-27 19:02:00,50.0,28.0,-100.00,West,272,11.0,15.0,43,0.00,,,0.00,0.000000,,2015-01-28 02:02:00,
2015-01-27 19:12:00,50.0,28.0,-100.00,West,272,11.0,15.0,43,0.00,,,0.00,0.000000,,2015-01-28 02:12:00,